Time,TemperatureF,DewpointF,PressureIn,WindDirection,WindDirectionDegrees,WindSpeedMPH,WindSpeedGustMPH,Humidity,HourlyPrecipIn,Conditions,Clouds,dailyrainin,SoftwareType,DateUTC
2014-08-29 00:00:00,60.8,52.5,29.96,NW,314,2.0,3.0,74,0.00,,,0.00,Wunderground v.1.15,2014-08-29 04:00:00,
2014-08-29 00:01:00,60.8,52.5,29.96,NW,317,5.0,5.0,74,0.00,,,0.00,Wunderground v.1.15,2014-08-29 04:01:00,
2014-08-29 00:06:00,60.6,52.6,29.96,WNW,293,0.0,5.0,75,0.00,,,0.00,Wunderground v.1.15,2014-08-29 04:06:00,
2014-08-29 00:11:00,60.4,52.8,29.96,WNW,292,4.0,9.0,76,0.00,,,0.00,Wunderground v.1.15,2014-08-29 04:11:00,
2014-08-29 00:16:00,60.3,52.7,29.97,NNW,342,1.0,9.0,76,0.00,,,0.00,Wunderground v.1.15,2014-08-29 04:16:00,
2014-08-29 00:21:00,60.2,52.6,29.97,NNW,340,2.0,5.0,76,0.00,,,0.00,Wunderground v.1.15,2014-08-29 04:21:00,
2014-08-29 00:26:00,60.0,52.4,29.97,WNW,299,4.0,13.0,76,0.00,,,0.00,Wunderground v.1.15,2014-08-29 04:26:00,
2014-08-29 00:31:00,60.3,52.7,29.97,WSW,247,5.0,7.0,76,0.00,,,0.00,Wunderground v.1.15,2014-08-29 04:31:00,
2014-08-29 00:36:00,60.5,52.9,29.98,WNW,301,5.0,13.0,76,0.00,,,0.00,Wunderground v.1.15,2014-08-29 04:36:00,
2014-08-29 00:41:00,60.8,53.2,29.98,NNW,336,7.0,11.0,76,0.00,,,0.00,Wunderground v.1.15,2014-08-29 04:41:00,
2014-08-29 00:46:00,61.0,53.0,29.97,NW,306,5.0,11.0,75,0.00,,,0.00,Wunderground v.1.15,2014-08-29 04:46:00,
2014-08-29 00:51:00,61.1,53.1,29.97,WNW,295,11.0,14.0,75,0.00,,,0.00,Wunderground v.1.15,2014-08-29 04:51:00,
2014-08-29 00:56:00,61.3,53.7,29.97,NW,324,7.0,14.0,76,0.00,,,0.00,Wunderground v.1.15,2014-08-29 04:56:00,
2014-08-29 01:01:00,61.2,53.6,29.98,North,350,4.0,7.0,76,0.00,,,0.00,Wunderground v.1.15,2014-08-29 05:01:00,
2014-08-29 01:06:00,61.2,53.2,29.98,NNE,20,5.0,11.0,75,0.00,,,0.00,Wunderground v.1.15,2014-08-29 05:06:00,
2014-08-29 01:11:00,61.2,53.6,29.98,North,360,4.0,5.0,76,0.00,,,0.00,Wunderground v.1.15,2014-08-29 05:11:00,
2014-08-29 01:16:00,61.1,53.5,29.98,NNW,336,1.0,11.0,76,0.00,,,0.00,Wunderground v.1.15,2014-08-29 05:16:00,
2014-08-29 01:21:00,61.1,53.5,29.98,WNW,296,8.0,13.0,76,0.00,,,0.00,Wunderground v.1.15,2014-08-29 05:21:00,
2014-08-29 01:26:00,61.2,53.9,29.98,NW,321,6.0,14.0,77,0.00,,,0.00,Wunderground v.1.15,2014-08-29 05:26:00,
2014-08-29 01:31:00,61.3,53.7,29.98,NW,321,5.0,6.0,76,0.00,,,0.00,Wunderground v.1.15,2014-08-29 05:31:00,
2014-08-29 01:36:00,61.3,53.3,29.98,NNW,333,4.0,16.0,75,0.00,,,0.00,Wunderground v.1.15,2014-08-29 05:36:00,
2014-08-29 01:41:00,61.5,53.5,29.98,North,350,6.0,7.0,75,0.00,,,0.00,Wunderground v.1.15,2014-08-29 05:41:00,
2014-08-29 01:46:00,61.5,53.5,29.98,North,355,2.0,9.0,75,0.00,,,0.00,Wunderground v.1.15,2014-08-29 05:46:00,
2014-08-29 01:51:00,61.4,53.4,29.98,North,11,0.0,5.0,75,0.00,,,0.00,Wunderground v.1.15,2014-08-29 05:51:00,
2014-08-29 01:56:00,61.4,53.4,29.99,NW,305,2.0,7.0,75,0.00,,,0.00,Wunderground v.1.15,2014-08-29 05:56:00,
2014-08-29 02:01:00,61.2,53.2,29.99,NW,315,8.0,8.0,75,0.00,,,0.00,Wunderground v.1.15,2014-08-29 06:01:00,
2014-08-29 02:06:00,61.0,53.0,29.99,WNW,286,2.0,8.0,75,0.00,,,0.00,Wunderground v.1.15,2014-08-29 06:06:00,